Location: *
(35.8942°N, 23.3025°E)
Time: 17:44:08
(UTC+00:00)

Gurwin Techsat 1B - Pass Details

Date: 04 April 2023
Orbit: 811 x 813 km, 98.9° (Epoch: 03 June)

Event Time Altitude Azimuth Distance (km) Brightness Sun altitude
Rises 00:53:56 0° 19° (NNE) 3,343 12.6 -36.6°
Reaches altitude 10° 00:56:21 10° 25° (NNE) 2,408 11.7 -36.2°
Enters shadow 00:59:43 35° 49° (NE) 1,283 10.0 -35.7°
